Tracking 29892 objects as of 21-Nov-2024
HD Live streaming from Space Station
objects crossing your sky now

THORAD AGENA D DEB

Track THORAD AGENA D DEB now!
10-day predictions


NORAD ID: 4214
Int'l Code: 1969-082CD
Perigee: 711.7 km
Apogee: 792.1 km
Inclination: 70.1 °
Period: 99.7 minutes
Semi major axis: 7122 km
RCS: 0.0742 m2 (small)
Launch date: September 30, 1969
Source: United States (US)
Launch site: AIR FORCE WESTERN TEST RANGE (AFWTR)

Note: This is SATELLITE DEBRIS
Your satellite tracking list
Your tracking list is empty




NASA's NSSDC Master Catalog

Two Line Element Set (TLE):
1 04214U 69082CD  24325.30234527  .00001735  00000-0  51312-3 0  9999
2 04214  70.0505 321.9539 0056446 154.6184 205.7740 14.44159267877310
Source of the keplerian elements: AFSPC